EA3KZ-1 Weather Reports


time (UTC)temp
C
wind
direction
speed
KPH
gust
KPH
rain 1hr
cm
rain 24hr
cm
rain mn
cm
humidity
%
barometer
mb
20260905160550 31 5 9.7 17.7 0.00 0.00 0.00 45 1018.4
20260905155548 31 16 8.0 17.7 0.00 0.00 0.00 43 1018.5
20260905154545 31 71 9.7 24.1 0.00 0.00 0.00 42 1018.5
20260905153543 31 38 9.7 22.5 0.00 0.00 0.00 42 1018.3
20260905152540 31 52 8.0 17.7 0.00 0.00 0.00 41 1018.4
20260905151537 31 23 9.7 20.9 0.00 0.00 0.00 42 1018.5
20260905150535 31 319 9.7 20.9 0.00 0.00 0.00 42 1018.6
20260905145532 32 52 9.7 17.7 0.00 0.00 0.00 40 1018.5
20260905144559 33 86 6.4 17.7 0.00 0.00 0.00 38 1018.7
20260905143557 33 72 8.0 24.1 0.00 0.00 0.00 38 1018.7
20260905142554 33 22 6.4 17.7 0.00 0.00 0.00 37 1018.8
20260905141552 32 54 9.7 22.5 0.00 0.00 0.00 37 1018.8
20260905140549 33 28 8.0 17.7 0.00 0.00 0.00 37 1018.8
20260905135547 33 3 8.0 17.7 0.00 0.00 0.00 37 1018.9
20260905134544 33 33 8.0 22.5 0.00 0.00 0.00 36 1019.0
20260905133541 33 66 9.7 25.7 0.00 0.00 0.00 36 1018.8
20260905132539 33 133 6.4 22.5 0.00 0.00 0.00 35 1019.0
20260905131536 34 127 4.8 11.3 0.00 0.00 0.00 34 1019.0
20260905130534 33 15 9.7 24.1 0.00 0.00 0.00 35 1019.1
20260905125531 33 103 9.7 17.7 0.00 0.00 0.00 35 1019.1
20260905124528 33 34 11.3 17.7 0.00 0.00 0.00 36 1019.1
20260905123526 34 93 3.2 9.7 0.00 0.00 0.00 34 1019.1
20260905122523 34 26 4.8 11.3 0.00 0.00 0.00 34 1019.3
20260905121521 33 57 6.4 17.7 0.00 0.00 0.00 35 1019.4
20260905120518 33 28 9.7 17.7 0.00 0.00 0.00 35 1019.3
20260905115515 33 40 9.7 17.7 0.00 0.00 0.00 34 1019.4
20260905114613 33 64 6.4 22.5 0.00 0.00 0.00 33 1019.5
20260905113610 34 151 3.2 14.5 0.00 0.00 0.00 34 1019.5
20260905112608 33 114 6.4 17.7 0.00 0.00 0.00 35 1019.5
20260905111605 33 33 6.4 14.5 0.00 0.00 0.00 36 1019.5
20260905110603 33 93 4.8 14.5 0.00 0.00 0.00 36 1019.4
20260905105600 33 131 4.8 20.9 0.00 0.00 0.00 35 1019.4
20260905104557 33 336 6.4 14.5 0.00 0.00 0.00 38 1019.3
20260905103555 33 163 6.4 17.7 0.00 0.00 0.00 39 1019.4
20260905102552 32 15 8.0 17.7 0.00 0.00 0.00 39 1019.5
20260905101550 33 1 6.4 14.5 0.00 0.00 0.00 38 1019.5
20260905100548 32 28 9.7 17.7 0.00 0.00 0.00 39 1019.4
20260905095544 32 56 6.4 12.9 0.00 0.00 0.00 38 1019.5
20260905094542 32 43 6.4 14.5 0.00 0.00 0.00 38 1019.4
20260905093539 32 346 6.4 11.3 0.00 0.00 0.00 39 1019.3
20260905092537 32 14 8.0 17.7 0.00 0.00 0.00 38 1019.4
20260905091534 32 41 6.4 14.5 0.00 0.00 0.00 38 1019.2
20260905090531 31 54 9.7 17.7 0.00 0.00 0.00 39 1019.1
20260905085529 32 57 8.0 14.5 0.00 0.00 0.00 38 1019.0
20260905084526 31 21 11.3 17.7 0.00 0.00 0.00 38 1018.9
20260905083524 31 13 9.7 17.7 0.00 0.00 0.00 38 1019.0
20260905082521 31 357 9.7 17.7 0.00 0.00 0.00 37 1018.7
20260905081518 31 350 11.3 17.7 0.00 0.00 0.00 37 1018.5
20260905080516 31 325 8.0 14.5 0.00 0.00 0.00 37 1018.4
20260905075613 32 335 1.6 6.4 0.00 0.00 0.00 42 1018.4
20260905074611 31 0.0 3.2 0.00 0.00 0.00 45 1018.3
20260905073608 30 0.0 3.2 0.00 0.00 0.00 46 1018.2
20260905072606 30 90 0.0 3.2 0.00 0.00 0.00 47 1018.2
20260905071603 31 0.0 3.2 0.00 0.00 0.00 43 1018.1
20260905070601 30 293 0.0 3.2 0.00 0.00 0.00 46 1018.0
20260905065558 28 296 4.8 6.4 0.00 0.00 0.00 47 1017.9
20260905064555 28 301 3.2 6.4 0.00 0.00 0.00 47 1017.8
20260905063553 28 277 0.0 3.2 0.00 0.00 0.00 48 1017.9
20260905062550 27 284 3.2 6.4 0.00 0.00 0.00 50 1017.6
20260905061547 26 0.0 3.2 0.00 0.00 0.00 52 1017.7
20260905060545 26 270 0.0 3.2 0.00 0.00 0.00 51 1017.5
20260905055542 25 0.0 0.0 0.00 0.00 0.00 54 1017.5
20260905054540 26 270 0.0 3.2 0.00 0.00 0.00 51 1017.2
20260905053537 26 263 3.2 3.2 0.00 0.00 0.00 50 1017.3
20260905052534 26 240 3.2 3.2 0.00 0.00 0.00 50 1017.2
20260905051532 26 259 3.2 3.2 0.00 0.00 0.00 52 1017.0
20260905050529 25 279 3.2 3.2 0.00 0.00 0.00 54 1017.1
20260905045527 25 225 0.0 3.2 0.00 0.00 0.00 56 1017.1
20260905044524 25 267 1.6 3.2 0.00 0.00 0.00 55 1017.0
20260905043521 25 251 4.8 6.4 0.00 0.00 0.00 56 1017.0
20260905042519 25 248 3.2 3.2 0.00 0.00 0.00 56 1016.9
20260905041516 25 264 1.6 3.2 0.00 0.00 0.00 55 1016.9
20260905040614 25 266 1.6 3.2 0.00 0.00 0.00 55 1016.8
20260905035611 25 0.0 0.0 0.00 0.00 0.00 55 1016.9
20260905034609 25 248 3.2 3.2 0.00 0.00 0.00 55 1017.0
20260905033606 25 248 0.0 3.2 0.00 0.00 0.00 55 1016.9
20260905032604 25 229 3.2 6.4 0.00 0.00 0.00 55 1016.8
20260905031601 25 243 1.6 3.2 0.00 0.00 0.00 56 1016.8
20260905030558 25 0.0 0.0 0.00 0.00 0.00 57 1016.6
20260905025556 25 293 0.0 3.2 0.00 0.00 0.00 57 1016.7
20260905024553 25 23 0.0 3.2 0.00 0.00 0.00 55 1016.8
20260905023551 26 0.0 3.2 0.00 0.00 0.00 54 1016.7
20260905022548 25 293 1.6 3.2 0.00 0.00 0.00 56 1016.8
20260905021545 25 0.0 0.0 0.00 0.00 0.00 57 1016.8
20260905020543 25 0.0 0.0 0.00 0.00 0.00 56 1016.8
20260905015540 25 0.0 0.0 0.00 0.00 0.00 55 1016.6
20260905014538 25 0.0 0.0 0.00 0.00 0.00 54 1016.7
20260905013535 25 0.0 0.0 0.00 0.00 0.00 57 1016.8
20260905012533 25 0.0 0.0 0.00 0.00 0.00 56 1016.9
20260905011530 25 244 3.2 3.2 0.00 0.00 0.00 55 1016.8
20260905010527 25 242 1.6 6.4 0.00 0.00 0.00 55 1016.9
20260905005525 26 221 0.0 6.4 0.00 0.00 0.00 54 1016.9
20260905004522 26 224 3.2 6.4 0.00 0.00 0.00 53 1016.9
20260905003519 26 215 6.4 11.3 0.00 0.00 0.00 54 1017.0
20260905002517 25 230 6.4 12.9 0.00 0.00 0.00 56 1017.1
20260905001614 26 222 4.8 9.7 0.00 0.00 0.00 56 1017.1
20260905000612 25 180 3.2 3.2 0.00 0.00 0.00 57 1017.2
20260904235609 25 230 8.0 12.9 0.00 0.00 0.00 58 1017.2
20260904234607 25 218 1.6 6.4 0.00 0.00 0.00 62 1017.3
20260904233604 25 235 3.2 6.4 0.00 0.00 0.00 61 1017.4
20260904232601 25 180 3.2 6.4 0.00 0.00 0.00 61 1017.4
20260904231559 25 176 3.2 6.4 0.00 0.00 0.00 61 1017.4
20260904230556 25 230 4.8 9.7 0.00 0.00 0.00 63 1017.5
20260904225554 25 221 3.2 6.4 0.00 0.00 0.00 64 1017.5
20260904224551 25 223 3.2 9.7 0.00 0.00 0.00 62 1017.5
20260904223548 25 210 4.8 9.7 0.00 0.00 0.00 64 1017.7
20260904222546 25 218 8.0 11.3 0.00 0.00 0.00 67 1017.4
20260904221543 25 225 8.0 12.9 0.00 0.00 0.00 68 1017.5
20260904220541 25 194 6.4 11.3 0.00 0.00 0.00 69 1017.6
20260904215538 25 178 3.2 6.4 0.00 0.00 0.00 70 1017.6
20260904214535 25 214 4.8 11.3 0.00 0.00 0.00 72 1017.5
20260904213533 25 183 3.2 6.4 0.00 0.00 0.00 74 1017.5
20260904212530 26 175 3.2 6.4 0.00 0.00 0.00 73 1017.6
20260904211528 26 234 4.8 6.4 0.00 0.00 0.00 71 1017.7
20260904210525 26 244 4.8 6.4 0.00 0.00 0.00 72 1017.7
20260904205522 26 228 4.8 6.4 0.00 0.00 0.00 73 1017.8
20260904204520 26 233 6.4 6.4 0.00 0.00 0.00 74 1017.8
20260904203517 26 221 4.8 6.4 0.00 0.00 0.00 75 1017.7
20260904202515 26 237 4.8 6.4 0.00 0.00 0.00 75 1017.8
20260904201612 26 253 1.6 3.2 0.00 0.00 0.00 74 1017.8
20260904200610 26 248 3.2 3.2 0.00 0.00 0.00 74 1017.7
20260904195607 27 239 1.6 6.4 0.00 0.00 0.00 74 1017.8
20260904194605 27 0.0 3.2 0.00 0.00 0.00 75 1017.6
20260904193602 27 315 0.0 3.2 0.00 0.00 0.00 75 1017.6
20260904192559 27 322 1.6 3.2 0.00 0.00 0.00 76 1017.6
20260904191556 26 338 0.0 3.2 0.00 0.00 0.00 78 1017.5
20260904190554 26 310 1.6 3.2 0.00 0.00 0.00 79 1017.5
20260904185551 27 306 1.6 3.2 0.00 0.00 0.00 79 1017.3
20260904184549 27 313 4.8 6.4 0.00 0.00 0.00 78 1017.0
20260904183546 27 300 1.6 3.2 0.00 0.00 0.00 78 1017.0
20260904182544 27 62 1.6 3.2 0.00 0.00 0.00 77 1016.9
20260904181542 27 20 3.2 6.4 0.00 0.00 0.00 76 1016.8
20260904180538 27 348 3.2 9.7 0.00 0.00 0.00 74 1016.7
20260904175536 28 10 4.8 9.7 0.00 0.00 0.00 73 1016.7
20260904174533 28 118 3.2 6.4 0.00 0.00 0.00 70 1016.4
20260904173531 28 29 3.2 9.7 0.00 0.00 0.00 68 1016.3
20260904172528 28 43 4.8 11.3 0.00 0.00 0.00 68 1016.3
20260904171525 28 30 8.0 17.7 0.00 0.00 0.00 69 1016.3
20260904170523 29 17 9.7 17.7 0.00 0.00 0.00 68 1016.1
20260904165520 29 13 8.0 17.7 0.00 0.00 0.00 68 1016.0
20260904164517 30 358 9.7 17.7 0.00 0.00 0.00 68 1016.0
20260904163515 30 6 11.3 22.5 0.00 0.00 0.00 69 1015.9
20260904162614 30 13 9.7 17.7 0.00 0.00 0.00 67 1015.9
20260904161610 31 50 8.0 14.5 0.00 0.00 0.00 64 1015.9